Index of /20260413/WXO-DD/model_gdps/15km/12/126
Name Last modified Size Description
Parent Directory -
20260413T12Z_MSC_GDPS_AbsoluteVorticity_IsbL-0200_LatLon0.15_PT126H.grib2 2026-04-13 16:47 1.5M
20260413T12Z_MSC_GDPS_AbsoluteVorticity_IsbL-0250_LatLon0.15_PT126H.grib2 2026-04-13 16:47 1.3M
20260413T12Z_MSC_GDPS_AbsoluteVorticity_IsbL-0500_LatLon0.15_PT126H.grib2 2026-04-13 16:47 1.5M
20260413T12Z_MSC_GDPS_AbsoluteVorticity_IsbL-0700_LatLon0.15_PT126H.grib2 2026-04-13 16:47 1.6M
20260413T12Z_MSC_GDPS_AbsoluteVorticity_IsbL-0850_LatLon0.15_PT126H.grib2 2026-04-13 16:47 1.6M
20260413T12Z_MSC_GDPS_AirTemp-Max_AGL-2m_LatLon0.15_PT126H.grib2 2026-04-13 16:47 753K
20260413T12Z_MSC_GDPS_AirTemp-Min_AGL-2m_LatLon0.15_PT126H.grib2 2026-04-13 16:47 801K
20260413T12Z_MSC_GDPS_AirTemp_AGL-120m_LatLon0.15_PT126H.grib2 2026-04-13 16:47 917K
20260413T12Z_MSC_GDPS_AirTemp_AGL-2m_LatLon0.15_PT126H.grib2 2026-04-13 16:47 1.0M
20260413T12Z_MSC_GDPS_AirTemp_AGL-40m_LatLon0.15_PT126H.grib2 2026-04-13 16:47 937K
20260413T12Z_MSC_GDPS_AirTemp_AGL-80m_LatLon0.15_PT126H.grib2 2026-04-13 16:47 926K
20260413T12Z_MSC_GDPS_AirTemp_IsbL-0001_LatLon0.15_PT126H.grib2 2026-04-13 16:47 703K
20260413T12Z_MSC_GDPS_AirTemp_IsbL-0005_LatLon0.15_PT126H.grib2 2026-04-13 16:47 682K
20260413T12Z_MSC_GDPS_AirTemp_IsbL-0010_LatLon0.15_PT126H.grib2 2026-04-13 16:47 748K
20260413T12Z_MSC_GDPS_AirTemp_IsbL-0020_LatLon0.15_PT126H.grib2 2026-04-13 16:47 692K
20260413T12Z_MSC_GDPS_AirTemp_IsbL-0030_LatLon0.15_PT126H.grib2 2026-04-13 16:47 744K
20260413T12Z_MSC_GDPS_AirTemp_IsbL-0050_LatLon0.15_PT126H.grib2 2026-04-13 16:47 811K
20260413T12Z_MSC_GDPS_AirTemp_IsbL-0100_LatLon0.15_PT126H.grib2 2026-04-13 16:47 959K
20260413T12Z_MSC_GDPS_AirTemp_IsbL-0150_LatLon0.15_PT126H.grib2 2026-04-13 16:47 968K
20260413T12Z_MSC_GDPS_AirTemp_IsbL-0175_LatLon0.15_PT126H.grib2 2026-04-13 16:47 963K
20260413T12Z_MSC_GDPS_AirTemp_IsbL-0200_LatLon0.15_PT126H.grib2 2026-04-13 16:47 973K
20260413T12Z_MSC_GDPS_AirTemp_IsbL-0225_LatLon0.15_PT126H.grib2 2026-04-13 16:47 1.0M
20260413T12Z_MSC_GDPS_AirTemp_IsbL-0250_LatLon0.15_PT126H.grib2 2026-04-13 16:47 1.0M
20260413T12Z_MSC_GDPS_AirTemp_IsbL-0275_LatLon0.15_PT126H.grib2 2026-04-13 16:47 1.0M
20260413T12Z_MSC_GDPS_AirTemp_IsbL-0300_LatLon0.15_PT126H.grib2 2026-04-13 16:47 1.0M
20260413T12Z_MSC_GDPS_AirTemp_IsbL-0350_LatLon0.15_PT126H.grib2 2026-04-13 16:47 929K
20260413T12Z_MSC_GDPS_AirTemp_IsbL-0400_LatLon0.15_PT126H.grib2 2026-04-13 16:47 939K
20260413T12Z_MSC_GDPS_AirTemp_IsbL-0450_LatLon0.15_PT126H.grib2 2026-04-13 16:47 960K
20260413T12Z_MSC_GDPS_AirTemp_IsbL-0500_LatLon0.15_PT126H.grib2 2026-04-13 16:47 1.0M
20260413T12Z_MSC_GDPS_AirTemp_IsbL-0550_LatLon0.15_PT126H.grib2 2026-04-13 16:47 1.0M
20260413T12Z_MSC_GDPS_AirTemp_IsbL-0600_LatLon0.15_PT126H.grib2 2026-04-13 16:47 893K
20260413T12Z_MSC_GDPS_AirTemp_IsbL-0650_LatLon0.15_PT126H.grib2 2026-04-13 16:47 925K
20260413T12Z_MSC_GDPS_AirTemp_IsbL-0700_LatLon0.15_PT126H.grib2 2026-04-13 16:47 963K
20260413T12Z_MSC_GDPS_AirTemp_IsbL-0750_LatLon0.15_PT126H.grib2 2026-04-13 16:47 1.0M
20260413T12Z_MSC_GDPS_AirTemp_IsbL-0800_LatLon0.15_PT126H.grib2 2026-04-13 16:47 1.1M
20260413T12Z_MSC_GDPS_AirTemp_IsbL-0850_LatLon0.15_PT126H.grib2 2026-04-13 16:47 1.1M
20260413T12Z_MSC_GDPS_AirTemp_IsbL-0875_LatLon0.15_PT126H.grib2 2026-04-13 16:47 1.2M
20260413T12Z_MSC_GDPS_AirTemp_IsbL-0900_LatLon0.15_PT126H.grib2 2026-04-13 16:47 1.1M
20260413T12Z_MSC_GDPS_AirTemp_IsbL-0925_LatLon0.15_PT126H.grib2 2026-04-13 16:47 1.1M
20260413T12Z_MSC_GDPS_AirTemp_IsbL-0950_LatLon0.15_PT126H.grib2 2026-04-13 16:47 1.1M
20260413T12Z_MSC_GDPS_AirTemp_IsbL-0970_LatLon0.15_PT126H.grib2 2026-04-13 16:47 1.2M
20260413T12Z_MSC_GDPS_AirTemp_IsbL-0985_LatLon0.15_PT126H.grib2 2026-04-13 16:47 1.1M
20260413T12Z_MSC_GDPS_AirTemp_IsbL-1000_LatLon0.15_PT126H.grib2 2026-04-13 16:47 1.1M
20260413T12Z_MSC_GDPS_AirTemp_IsbL-1015_LatLon0.15_PT126H.grib2 2026-04-13 16:47 1.1M
20260413T12Z_MSC_GDPS_Albedo_Sfc_LatLon0.15_PT126H.grib2 2026-04-13 16:47 250K
20260413T12Z_MSC_GDPS_CAPE_Sfc_LatLon0.15_PT126H.grib2 2026-04-13 16:47 3.9M
20260413T12Z_MSC_GDPS_CIN_Sfc_LatLon0.15_PT126H.grib2 2026-04-13 16:47 2.9M
20260413T12Z_MSC_GDPS_CloudWater_EAtm_LatLon0.15_PT126H.grib2 2026-04-13 16:47 533K
20260413T12Z_MSC_GDPS_ConvectivePrecip-Accum_Sfc_LatLon0.15_PT126H.grib2 2026-04-13 16:47 3.2M
20260413T12Z_MSC_GDPS_DewPointDepression_AGL-2m_LatLon0.15_PT126H.grib2 2026-04-13 16:47 758K
20260413T12Z_MSC_GDPS_DewPointDepression_IsbL-0010_LatLon0.15_PT126H.grib2 2026-04-13 16:47 3.0K
20260413T12Z_MSC_GDPS_DewPointDepression_IsbL-0020_LatLon0.15_PT126H.grib2 2026-04-13 16:47 55K
20260413T12Z_MSC_GDPS_DewPointDepression_IsbL-0030_LatLon0.15_PT126H.grib2 2026-04-13 16:47 69K
20260413T12Z_MSC_GDPS_DewPointDepression_IsbL-0050_LatLon0.15_PT126H.grib2 2026-04-13 16:47 355K
20260413T12Z_MSC_GDPS_DewPointDepression_IsbL-0100_LatLon0.15_PT126H.grib2 2026-04-13 16:47 372K
20260413T12Z_MSC_GDPS_DewPointDepression_IsbL-0150_LatLon0.15_PT126H.grib2 2026-04-13 16:47 462K
20260413T12Z_MSC_GDPS_DewPointDepression_IsbL-0175_LatLon0.15_PT126H.grib2 2026-04-13 16:47 542K
20260413T12Z_MSC_GDPS_DewPointDepression_IsbL-0200_LatLon0.15_PT126H.grib2 2026-04-13 16:47 630K
20260413T12Z_MSC_GDPS_DewPointDepression_IsbL-0225_LatLon0.15_PT126H.grib2 2026-04-13 16:47 766K
20260413T12Z_MSC_GDPS_DewPointDepression_IsbL-0250_LatLon0.15_PT126H.grib2 2026-04-13 16:47 882K
20260413T12Z_MSC_GDPS_DewPointDepression_IsbL-0275_LatLon0.15_PT126H.grib2 2026-04-13 16:47 898K
20260413T12Z_MSC_GDPS_DewPointDepression_IsbL-0300_LatLon0.15_PT126H.grib2 2026-04-13 16:47 931K
20260413T12Z_MSC_GDPS_DewPointDepression_IsbL-0350_LatLon0.15_PT126H.grib2 2026-04-13 16:47 951K
20260413T12Z_MSC_GDPS_DewPointDepression_IsbL-0400_LatLon0.15_PT126H.grib2 2026-04-13 16:47 1.0M
20260413T12Z_MSC_GDPS_DewPointDepression_IsbL-0450_LatLon0.15_PT126H.grib2 2026-04-13 16:47 1.0M
20260413T12Z_MSC_GDPS_DewPointDepression_IsbL-0500_LatLon0.15_PT126H.grib2 2026-04-13 16:47 1.0M
20260413T12Z_MSC_GDPS_DewPointDepression_IsbL-0550_LatLon0.15_PT126H.grib2 2026-04-13 16:47 1.0M
20260413T12Z_MSC_GDPS_DewPointDepression_IsbL-0600_LatLon0.15_PT126H.grib2 2026-04-13 16:47 1.1M
20260413T12Z_MSC_GDPS_DewPointDepression_IsbL-0650_LatLon0.15_PT126H.grib2 2026-04-13 16:47 1.1M
20260413T12Z_MSC_GDPS_DewPointDepression_IsbL-0700_LatLon0.15_PT126H.grib2 2026-04-13 16:47 1.1M
20260413T12Z_MSC_GDPS_DewPointDepression_IsbL-0750_LatLon0.15_PT126H.grib2 2026-04-13 16:47 1.1M
20260413T12Z_MSC_GDPS_DewPointDepression_IsbL-0800_LatLon0.15_PT126H.grib2 2026-04-13 16:47 1.2M
20260413T12Z_MSC_GDPS_DewPointDepression_IsbL-0850_LatLon0.15_PT126H.grib2 2026-04-13 16:47 1.2M
20260413T12Z_MSC_GDPS_DewPointDepression_IsbL-0875_LatLon0.15_PT126H.grib2 2026-04-13 16:47 1.1M
20260413T12Z_MSC_GDPS_DewPointDepression_IsbL-0900_LatLon0.15_PT126H.grib2 2026-04-13 16:47 1.1M
20260413T12Z_MSC_GDPS_DewPointDepression_IsbL-0925_LatLon0.15_PT126H.grib2 2026-04-13 16:47 1.0M
20260413T12Z_MSC_GDPS_DewPointDepression_IsbL-0950_LatLon0.15_PT126H.grib2 2026-04-13 16:47 1.0M
20260413T12Z_MSC_GDPS_DewPointDepression_IsbL-0970_LatLon0.15_PT126H.grib2 2026-04-13 16:47 1.0M
20260413T12Z_MSC_GDPS_DewPointDepression_IsbL-0985_LatLon0.15_PT126H.grib2 2026-04-13 16:47 1.0M
20260413T12Z_MSC_GDPS_DewPointDepression_IsbL-1000_LatLon0.15_PT126H.grib2 2026-04-13 16:47 1.0M
20260413T12Z_MSC_GDPS_DewPointDepression_IsbL-1015_LatLon0.15_PT126H.grib2 2026-04-13 16:47 914K
20260413T12Z_MSC_GDPS_DewPoint_AGL-2m_LatLon0.15_PT126H.grib2 2026-04-13 16:47 616K
20260413T12Z_MSC_GDPS_DownwardLongwaveRadiationFlux-Accum_Sfc_LatLon0.15_PT126H.grib2 2026-04-13 16:47 813K
20260413T12Z_MSC_GDPS_DownwardShortwaveRadiationFlux-Accum_NTAtm_LatLon0.15_PT126H.grib2 2026-04-13 16:47 195K
20260413T12Z_MSC_GDPS_DownwardShortwaveRadiationFlux-Accum_Sfc_LatLon0.15_PT126H.grib2 2026-04-13 16:47 1.0M
20260413T12Z_MSC_GDPS_FreezingRain-Accum12h_Sfc_LatLon0.15_PT126H.grib2 2026-04-13 16:47 87K
20260413T12Z_MSC_GDPS_FreezingRain-Accum1h_Sfc_LatLon0.15_PT126H.grib2 2026-04-13 16:47 40K
20260413T12Z_MSC_GDPS_FreezingRain-Accum24h_Sfc_LatLon0.15_PT126H.grib2 2026-04-13 16:47 140K
20260413T12Z_MSC_GDPS_FreezingRain-Accum3h_Sfc_LatLon0.15_PT126H.grib2 2026-04-13 16:47 48K
20260413T12Z_MSC_GDPS_FreezingRain-Accum6h_Sfc_LatLon0.15_PT126H.grib2 2026-04-13 16:47 60K
20260413T12Z_MSC_GDPS_FreezingRain-Accum_Sfc_LatLon0.15_PT126H.grib2 2026-04-13 16:47 268K
20260413T12Z_MSC_GDPS_GeopotentialHeight_IsbL-0001_LatLon0.15_PT126H.grib2 2026-04-13 16:47 526K
20260413T12Z_MSC_GDPS_GeopotentialHeight_IsbL-0005_LatLon0.15_PT126H.grib2 2026-04-13 16:47 503K
20260413T12Z_MSC_GDPS_GeopotentialHeight_IsbL-0010_LatLon0.15_PT126H.grib2 2026-04-13 16:47 433K
20260413T12Z_MSC_GDPS_GeopotentialHeight_IsbL-0020_LatLon0.15_PT126H.grib2 2026-04-13 16:47 574K
20260413T12Z_MSC_GDPS_GeopotentialHeight_IsbL-0030_LatLon0.15_PT126H.grib2 2026-04-13 16:47 580K
20260413T12Z_MSC_GDPS_GeopotentialHeight_IsbL-0050_LatLon0.15_PT126H.grib2 2026-04-13 16:47 516K
20260413T12Z_MSC_GDPS_GeopotentialHeight_IsbL-0100_LatLon0.15_PT126H.grib2 2026-04-13 16:47 621K
20260413T12Z_MSC_GDPS_GeopotentialHeight_IsbL-0150_LatLon0.15_PT126H.grib2 2026-04-13 16:47 637K
20260413T12Z_MSC_GDPS_GeopotentialHeight_IsbL-0175_LatLon0.15_PT126H.grib2 2026-04-13 16:47 640K
20260413T12Z_MSC_GDPS_GeopotentialHeight_IsbL-0200_LatLon0.15_PT126H.grib2 2026-04-13 16:47 644K
20260413T12Z_MSC_GDPS_GeopotentialHeight_IsbL-0225_LatLon0.15_PT126H.grib2 2026-04-13 16:47 638K
20260413T12Z_MSC_GDPS_GeopotentialHeight_IsbL-0250_LatLon0.15_PT126H.grib2 2026-04-13 16:47 645K
20260413T12Z_MSC_GDPS_GeopotentialHeight_IsbL-0275_LatLon0.15_PT126H.grib2 2026-04-13 16:47 646K
20260413T12Z_MSC_GDPS_GeopotentialHeight_IsbL-0300_LatLon0.15_PT126H.grib2 2026-04-13 16:47 636K
20260413T12Z_MSC_GDPS_GeopotentialHeight_IsbL-0350_LatLon0.15_PT126H.grib2 2026-04-13 16:47 629K
20260413T12Z_MSC_GDPS_GeopotentialHeight_IsbL-0400_LatLon0.15_PT126H.grib2 2026-04-13 16:47 620K
20260413T12Z_MSC_GDPS_GeopotentialHeight_IsbL-0450_LatLon0.15_PT126H.grib2 2026-04-13 16:47 542K
20260413T12Z_MSC_GDPS_GeopotentialHeight_IsbL-0500_LatLon0.15_PT126H.grib2 2026-04-13 16:47 532K
20260413T12Z_MSC_GDPS_GeopotentialHeight_IsbL-0550_LatLon0.15_PT126H.grib2 2026-04-13 16:47 693K
20260413T12Z_MSC_GDPS_GeopotentialHeight_IsbL-0600_LatLon0.15_PT126H.grib2 2026-04-13 16:47 684K
20260413T12Z_MSC_GDPS_GeopotentialHeight_IsbL-0650_LatLon0.15_PT126H.grib2 2026-04-13 16:47 684K
20260413T12Z_MSC_GDPS_GeopotentialHeight_IsbL-0700_LatLon0.15_PT126H.grib2 2026-04-13 16:47 683K
20260413T12Z_MSC_GDPS_GeopotentialHeight_IsbL-0750_LatLon0.15_PT126H.grib2 2026-04-13 16:47 688K
20260413T12Z_MSC_GDPS_GeopotentialHeight_IsbL-0800_LatLon0.15_PT126H.grib2 2026-04-13 16:47 703K
20260413T12Z_MSC_GDPS_GeopotentialHeight_IsbL-0850_LatLon0.15_PT126H.grib2 2026-04-13 16:47 708K
20260413T12Z_MSC_GDPS_GeopotentialHeight_IsbL-0875_LatLon0.15_PT126H.grib2 2026-04-13 16:47 717K
20260413T12Z_MSC_GDPS_GeopotentialHeight_IsbL-0900_LatLon0.15_PT126H.grib2 2026-04-13 16:47 720K
20260413T12Z_MSC_GDPS_GeopotentialHeight_IsbL-0925_LatLon0.15_PT126H.grib2 2026-04-13 16:47 729K
20260413T12Z_MSC_GDPS_GeopotentialHeight_IsbL-0950_LatLon0.15_PT126H.grib2 2026-04-13 16:47 740K
20260413T12Z_MSC_GDPS_GeopotentialHeight_IsbL-0970_LatLon0.15_PT126H.grib2 2026-04-13 16:47 752K
20260413T12Z_MSC_GDPS_GeopotentialHeight_IsbL-0985_LatLon0.15_PT126H.grib2 2026-04-13 16:47 768K
20260413T12Z_MSC_GDPS_GeopotentialHeight_IsbL-1000_LatLon0.15_PT126H.grib2 2026-04-13 16:47 789K
20260413T12Z_MSC_GDPS_GeopotentialHeight_IsbL-1015_LatLon0.15_PT126H.grib2 2026-04-13 16:47 812K
20260413T12Z_MSC_GDPS_Humidex_Sfc_LatLon0.15_PT126H.grib2 2026-04-13 16:47 5.3M
20260413T12Z_MSC_GDPS_IcePellets-Accum12h_Sfc_LatLon0.15_PT126H.grib2 2026-04-13 16:47 38K
20260413T12Z_MSC_GDPS_IcePellets-Accum1h_Sfc_LatLon0.15_PT126H.grib2 2026-04-13 16:47 28K
20260413T12Z_MSC_GDPS_IcePellets-Accum24h_Sfc_LatLon0.15_PT126H.grib2 2026-04-13 16:47 56K
20260413T12Z_MSC_GDPS_IcePellets-Accum3h_Sfc_LatLon0.15_PT126H.grib2 2026-04-13 16:47 30K
20260413T12Z_MSC_GDPS_IcePellets-Accum6h_Sfc_LatLon0.15_PT126H.grib2 2026-04-13 16:47 32K
20260413T12Z_MSC_GDPS_IcePellets-Accum_Sfc_LatLon0.15_PT126H.grib2 2026-04-13 16:47 140K
20260413T12Z_MSC_GDPS_KIndex_Sfc_LatLon0.15_PT126H.grib2 2026-04-13 16:47 6.5M
20260413T12Z_MSC_GDPS_LatentHeatNetFlux_Sfc_LatLon0.15_PT126H.grib2 2026-04-13 16:47 503K
20260413T12Z_MSC_GDPS_LiftedIndex-MU-VT_IsbL-0500_LatLon0.15_PT126H.grib2 2026-04-13 16:47 5.4M
20260413T12Z_MSC_GDPS_NetLongwaveRadiationFlux-Accum_Sfc_LatLon0.15_PT126H.grib2 2026-04-13 16:47 1.0M
20260413T12Z_MSC_GDPS_NetShortwaveRadiationFlux-Accum_Sfc_LatLon0.15_PT126H.grib2 2026-04-13 16:47 1.0M
20260413T12Z_MSC_GDPS_O3MixingRatio_LatLon0.15_PT126H.grib2 2026-04-13 17:07 2.3M
20260413T12Z_MSC_GDPS_O3_EAtm_LatLon0.15_PT126H.grib2 2026-04-13 17:07 2.1M
20260413T12Z_MSC_GDPS_PlanetaryBoundaryLayerHeight_Sfc_LatLon0.15_PT126H.grib2 2026-04-13 16:47 2.4M
20260413T12Z_MSC_GDPS_Precip-Accum12h_Sfc_LatLon0.15_PT126H.grib2 2026-04-13 16:47 4.0M
20260413T12Z_MSC_GDPS_Precip-Accum1h_Sfc_LatLon0.15_PT126H.grib2 2026-04-13 16:47 3.2M
20260413T12Z_MSC_GDPS_Precip-Accum24h_Sfc_LatLon0.15_PT126H.grib2 2026-04-13 16:47 4.5M
20260413T12Z_MSC_GDPS_Precip-Accum3h_Sfc_LatLon0.15_PT126H.grib2 2026-04-13 16:47 3.4M
20260413T12Z_MSC_GDPS_Precip-Accum6h_Sfc_LatLon0.15_PT126H.grib2 2026-04-13 16:47 3.9M
20260413T12Z_MSC_GDPS_Precip-Accum_Sfc_LatLon0.15_PT126H.grib2 2026-04-13 16:47 5.1M
20260413T12Z_MSC_GDPS_PrecipRate_Sfc_LatLon0.15_PT126H.grib2 2026-04-13 16:47 2.9M
20260413T12Z_MSC_GDPS_PrecipType-Instant_Sfc_LatLon0.15_PT126H.grib2 2026-04-13 16:47 1.5M
20260413T12Z_MSC_GDPS_Pressure_MSL_LatLon0.15_PT126H.grib2 2026-04-13 16:47 730K
20260413T12Z_MSC_GDPS_Pressure_PVU-1.5_LatLon0.15_PT126H.grib2 2026-04-13 16:47 5.8M
20260413T12Z_MSC_GDPS_Pressure_PVU-1_LatLon0.15_PT126H.grib2 2026-04-13 16:47 6.0M
20260413T12Z_MSC_GDPS_Pressure_PVU-2_LatLon0.15_PT126H.grib2 2026-04-13 16:47 5.6M
20260413T12Z_MSC_GDPS_Pressure_Sfc_LatLon0.15_PT126H.grib2 2026-04-13 16:47 1.1M
20260413T12Z_MSC_GDPS_RadiativeTemp_Sfc_LatLon0.15_PT126H.grib2 2026-04-13 16:47 672K
20260413T12Z_MSC_GDPS_Rain-Accum12h_Sfc_LatLon0.15_PT126H.grib2 2026-04-13 16:47 2.6M
20260413T12Z_MSC_GDPS_Rain-Accum1h_Sfc_LatLon0.15_PT126H.grib2 2026-04-13 16:47 1.6M
20260413T12Z_MSC_GDPS_Rain-Accum24h_Sfc_LatLon0.15_PT126H.grib2 2026-04-13 16:47 3.1M
20260413T12Z_MSC_GDPS_Rain-Accum3h_Sfc_LatLon0.15_PT126H.grib2 2026-04-13 16:47 1.8M
20260413T12Z_MSC_GDPS_Rain-Accum6h_Sfc_LatLon0.15_PT126H.grib2 2026-04-13 16:47 2.4M
20260413T12Z_MSC_GDPS_Rain-Accum_Sfc_LatLon0.15_PT126H.grib2 2026-04-13 16:47 3.8M
20260413T12Z_MSC_GDPS_RelativeHumidity_AGL-2m_LatLon0.15_PT126H.grib2 2026-04-13 16:47 1.0M
20260413T12Z_MSC_GDPS_RelativeHumidity_IsbL-0010_LatLon0.15_PT126H.grib2 2026-04-13 16:47 225K
20260413T12Z_MSC_GDPS_RelativeHumidity_IsbL-0020_LatLon0.15_PT126H.grib2 2026-04-13 16:47 362K
20260413T12Z_MSC_GDPS_RelativeHumidity_IsbL-0030_LatLon0.15_PT126H.grib2 2026-04-13 16:47 372K
20260413T12Z_MSC_GDPS_RelativeHumidity_IsbL-0050_LatLon0.15_PT126H.grib2 2026-04-13 16:47 405K
20260413T12Z_MSC_GDPS_RelativeHumidity_IsbL-0100_LatLon0.15_PT126H.grib2 2026-04-13 16:47 481K
20260413T12Z_MSC_GDPS_RelativeHumidity_IsbL-0150_LatLon0.15_PT126H.grib2 2026-04-13 16:47 649K
20260413T12Z_MSC_GDPS_RelativeHumidity_IsbL-0175_LatLon0.15_PT126H.grib2 2026-04-13 16:47 791K
20260413T12Z_MSC_GDPS_RelativeHumidity_IsbL-0200_LatLon0.15_PT126H.grib2 2026-04-13 16:47 699K
20260413T12Z_MSC_GDPS_RelativeHumidity_IsbL-0225_LatLon0.15_PT126H.grib2 2026-04-13 16:47 790K
20260413T12Z_MSC_GDPS_RelativeHumidity_IsbL-0250_LatLon0.15_PT126H.grib2 2026-04-13 16:47 883K
20260413T12Z_MSC_GDPS_RelativeHumidity_IsbL-0275_LatLon0.15_PT126H.grib2 2026-04-13 16:47 906K
20260413T12Z_MSC_GDPS_RelativeHumidity_IsbL-0300_LatLon0.15_PT126H.grib2 2026-04-13 16:47 947K
20260413T12Z_MSC_GDPS_RelativeHumidity_IsbL-0350_LatLon0.15_PT126H.grib2 2026-04-13 16:47 961K
20260413T12Z_MSC_GDPS_RelativeHumidity_IsbL-0400_LatLon0.15_PT126H.grib2 2026-04-13 16:47 1.0M
20260413T12Z_MSC_GDPS_RelativeHumidity_IsbL-0450_LatLon0.15_PT126H.grib2 2026-04-13 16:47 1.0M
20260413T12Z_MSC_GDPS_RelativeHumidity_IsbL-0500_LatLon0.15_PT126H.grib2 2026-04-13 16:47 1.0M
20260413T12Z_MSC_GDPS_RelativeHumidity_IsbL-0550_LatLon0.15_PT126H.grib2 2026-04-13 16:47 1.0M
20260413T12Z_MSC_GDPS_RelativeHumidity_IsbL-0600_LatLon0.15_PT126H.grib2 2026-04-13 16:47 1.1M
20260413T12Z_MSC_GDPS_RelativeHumidity_IsbL-0650_LatLon0.15_PT126H.grib2 2026-04-13 16:47 1.1M
20260413T12Z_MSC_GDPS_RelativeHumidity_IsbL-0700_LatLon0.15_PT126H.grib2 2026-04-13 16:47 1.2M
20260413T12Z_MSC_GDPS_RelativeHumidity_IsbL-0750_LatLon0.15_PT126H.grib2 2026-04-13 16:47 1.2M
20260413T12Z_MSC_GDPS_RelativeHumidity_IsbL-0800_LatLon0.15_PT126H.grib2 2026-04-13 16:47 1.2M
20260413T12Z_MSC_GDPS_RelativeHumidity_IsbL-0850_LatLon0.15_PT126H.grib2 2026-04-13 16:47 1.3M
20260413T12Z_MSC_GDPS_RelativeHumidity_IsbL-0875_LatLon0.15_PT126H.grib2 2026-04-13 16:47 1.3M
20260413T12Z_MSC_GDPS_RelativeHumidity_IsbL-0900_LatLon0.15_PT126H.grib2 2026-04-13 16:47 1.2M
20260413T12Z_MSC_GDPS_RelativeHumidity_IsbL-0925_LatLon0.15_PT126H.grib2 2026-04-13 16:47 1.2M
20260413T12Z_MSC_GDPS_RelativeHumidity_IsbL-0950_LatLon0.15_PT126H.grib2 2026-04-13 16:47 1.2M
20260413T12Z_MSC_GDPS_RelativeHumidity_IsbL-0970_LatLon0.15_PT126H.grib2 2026-04-13 16:47 1.2M
20260413T12Z_MSC_GDPS_RelativeHumidity_IsbL-0985_LatLon0.15_PT126H.grib2 2026-04-13 16:47 1.2M
20260413T12Z_MSC_GDPS_RelativeHumidity_IsbL-1000_LatLon0.15_PT126H.grib2 2026-04-13 16:47 1.1M
20260413T12Z_MSC_GDPS_RelativeHumidity_IsbL-1015_LatLon0.15_PT126H.grib2 2026-04-13 16:47 1.0M
20260413T12Z_MSC_GDPS_RelativeVorticity_IsbL-0200_LatLon0.15_PT126H.grib2 2026-04-13 16:47 1.5M
20260413T12Z_MSC_GDPS_RelativeVorticity_IsbL-0250_LatLon0.15_PT126H.grib2 2026-04-13 16:47 1.3M
20260413T12Z_MSC_GDPS_RelativeVorticity_IsbL-0500_LatLon0.15_PT126H.grib2 2026-04-13 16:47 1.5M
20260413T12Z_MSC_GDPS_RelativeVorticity_IsbL-0700_LatLon0.15_PT126H.grib2 2026-04-13 16:47 1.6M
20260413T12Z_MSC_GDPS_RelativeVorticity_IsbL-0850_LatLon0.15_PT126H.grib2 2026-04-13 16:47 1.6M
20260413T12Z_MSC_GDPS_Runoff-Accum_Sfc_LatLon0.15_PT126H.grib2 2026-04-13 16:47 118K
20260413T12Z_MSC_GDPS_SensibleHeatNetFlux_Sfc_LatLon0.15_PT126H.grib2 2026-04-13 16:47 456K
20260413T12Z_MSC_GDPS_ShowalterIndex_IsbL-0500_LatLon0.15_PT126H.grib2 2026-04-13 16:47 6.2M
20260413T12Z_MSC_GDPS_Snow-Accum12h_Sfc_LatLon0.15_PT126H.grib2 2026-04-13 16:47 1.4M
20260413T12Z_MSC_GDPS_Snow-Accum1h_Sfc_LatLon0.15_PT126H.grib2 2026-04-13 16:47 854K
20260413T12Z_MSC_GDPS_Snow-Accum24h_Sfc_LatLon0.15_PT126H.grib2 2026-04-13 16:47 1.7M
20260413T12Z_MSC_GDPS_Snow-Accum3h_Sfc_LatLon0.15_PT126H.grib2 2026-04-13 16:47 898K
20260413T12Z_MSC_GDPS_Snow-Accum6h_Sfc_LatLon0.15_PT126H.grib2 2026-04-13 16:47 1.3M
20260413T12Z_MSC_GDPS_Snow-Accum_Sfc_LatLon0.15_PT126H.grib2 2026-04-13 16:47 1.9M
20260413T12Z_MSC_GDPS_SnowDensity_Sfc_LatLon0.15_PT126H.grib2 2026-04-13 16:47 268K
20260413T12Z_MSC_GDPS_SnowDepth_Sfc_LatLon0.15_PT126H.grib2 2026-04-13 16:47 1.8M
20260413T12Z_MSC_GDPS_SoilTemp_DBS-0to10cm_LatLon0.15_PT126H.grib2 2026-04-13 16:47 511K
20260413T12Z_MSC_GDPS_SoilTemp_Sfc_LatLon0.15_PT126H.grib2 2026-04-13 16:47 582K
20260413T12Z_MSC_GDPS_SoilVolumetricIceContent_Sfc_LatLon0.15_PT126H.grib2 2026-04-13 16:47 223K
20260413T12Z_MSC_GDPS_SoilVolumetricWaterContent_DBS-0to10cm_LatLon0.15_PT126H.grib2 2026-04-13 16:47 552K
20260413T12Z_MSC_GDPS_SoilVolumetricWaterContent_DBS-0to1cm_LatLon0.15_PT126H.grib2 2026-04-13 16:47 650K
20260413T12Z_MSC_GDPS_SpecificHumidity_AGL-120m_LatLon0.15_PT126H.grib2 2026-04-13 16:47 1.1M
20260413T12Z_MSC_GDPS_SpecificHumidity_AGL-2m_LatLon0.15_PT126H.grib2 2026-04-13 16:47 1.2M
20260413T12Z_MSC_GDPS_SpecificHumidity_AGL-40m_LatLon0.15_PT126H.grib2 2026-04-13 16:47 1.1M
20260413T12Z_MSC_GDPS_SpecificHumidity_AGL-80m_LatLon0.15_PT126H.grib2 2026-04-13 16:47 1.1M
20260413T12Z_MSC_GDPS_SpecificHumidity_IsbL-0001_LatLon0.15_PT126H.grib2 2026-04-13 16:47 1.1M
20260413T12Z_MSC_GDPS_SpecificHumidity_IsbL-0005_LatLon0.15_PT126H.grib2 2026-04-13 16:47 1.1M
20260413T12Z_MSC_GDPS_SpecificHumidity_IsbL-0010_LatLon0.15_PT126H.grib2 2026-04-13 16:47 1.2M
20260413T12Z_MSC_GDPS_SpecificHumidity_IsbL-0020_LatLon0.15_PT126H.grib2 2026-04-13 16:47 1.3M
20260413T12Z_MSC_GDPS_SpecificHumidity_IsbL-0030_LatLon0.15_PT126H.grib2 2026-04-13 16:47 1.6M
20260413T12Z_MSC_GDPS_SpecificHumidity_IsbL-0050_LatLon0.15_PT126H.grib2 2026-04-13 16:47 1.3M
20260413T12Z_MSC_GDPS_SpecificHumidity_IsbL-0100_LatLon0.15_PT126H.grib2 2026-04-13 16:47 1.3M
20260413T12Z_MSC_GDPS_SpecificHumidity_IsbL-0150_LatLon0.15_PT126H.grib2 2026-04-13 16:47 1.3M
20260413T12Z_MSC_GDPS_SpecificHumidity_IsbL-0175_LatLon0.15_PT126H.grib2 2026-04-13 16:47 1.3M
20260413T12Z_MSC_GDPS_SpecificHumidity_IsbL-0200_LatLon0.15_PT126H.grib2 2026-04-13 16:47 1.3M
20260413T12Z_MSC_GDPS_SpecificHumidity_IsbL-0225_LatLon0.15_PT126H.grib2 2026-04-13 16:47 1.3M
20260413T12Z_MSC_GDPS_SpecificHumidity_IsbL-0250_LatLon0.15_PT126H.grib2 2026-04-13 16:47 1.2M
20260413T12Z_MSC_GDPS_SpecificHumidity_IsbL-0275_LatLon0.15_PT126H.grib2 2026-04-13 16:47 1.3M
20260413T12Z_MSC_GDPS_SpecificHumidity_IsbL-0300_LatLon0.15_PT126H.grib2 2026-04-13 16:47 1.3M
20260413T12Z_MSC_GDPS_SpecificHumidity_IsbL-0350_LatLon0.15_PT126H.grib2 2026-04-13 16:47 1.2M
20260413T12Z_MSC_GDPS_SpecificHumidity_IsbL-0400_LatLon0.15_PT126H.grib2 2026-04-13 16:47 1.5M
20260413T12Z_MSC_GDPS_SpecificHumidity_IsbL-0450_LatLon0.15_PT126H.grib2 2026-04-13 16:47 1.3M
20260413T12Z_MSC_GDPS_SpecificHumidity_IsbL-0500_LatLon0.15_PT126H.grib2 2026-04-13 16:47 1.4M
20260413T12Z_MSC_GDPS_SpecificHumidity_IsbL-0550_LatLon0.15_PT126H.grib2 2026-04-13 16:47 1.6M
20260413T12Z_MSC_GDPS_SpecificHumidity_IsbL-0600_LatLon0.15_PT126H.grib2 2026-04-13 16:47 1.4M
20260413T12Z_MSC_GDPS_SpecificHumidity_IsbL-0650_LatLon0.15_PT126H.grib2 2026-04-13 16:47 1.5M
20260413T12Z_MSC_GDPS_SpecificHumidity_IsbL-0700_LatLon0.15_PT126H.grib2 2026-04-13 16:47 1.6M
20260413T12Z_MSC_GDPS_SpecificHumidity_IsbL-0750_LatLon0.15_PT126H.grib2 2026-04-13 16:47 1.7M
20260413T12Z_MSC_GDPS_SpecificHumidity_IsbL-0800_LatLon0.15_PT126H.grib2 2026-04-13 16:47 1.8M
20260413T12Z_MSC_GDPS_SpecificHumidity_IsbL-0850_LatLon0.15_PT126H.grib2 2026-04-13 16:47 1.9M
20260413T12Z_MSC_GDPS_SpecificHumidity_IsbL-0875_LatLon0.15_PT126H.grib2 2026-04-13 16:47 1.9M
20260413T12Z_MSC_GDPS_SpecificHumidity_IsbL-0900_LatLon0.15_PT126H.grib2 2026-04-13 16:47 1.9M
20260413T12Z_MSC_GDPS_SpecificHumidity_IsbL-0925_LatLon0.15_PT126H.grib2 2026-04-13 16:47 1.6M
20260413T12Z_MSC_GDPS_SpecificHumidity_IsbL-0950_LatLon0.15_PT126H.grib2 2026-04-13 16:47 1.5M
20260413T12Z_MSC_GDPS_SpecificHumidity_IsbL-0970_LatLon0.15_PT126H.grib2 2026-04-13 16:47 1.5M
20260413T12Z_MSC_GDPS_SpecificHumidity_IsbL-0985_LatLon0.15_PT126H.grib2 2026-04-13 16:47 1.5M
20260413T12Z_MSC_GDPS_SpecificHumidity_IsbL-1000_LatLon0.15_PT126H.grib2 2026-04-13 16:47 1.5M
20260413T12Z_MSC_GDPS_SpecificHumidity_IsbL-1015_LatLon0.15_PT126H.grib2 2026-04-13 16:47 1.4M
20260413T12Z_MSC_GDPS_SpecificHumidity_Sfc_LatLon0.15_PT126H.grib2 2026-04-13 16:47 661K
20260413T12Z_MSC_GDPS_Thickness_IsbL-0850to0700_LatLon0.15_PT126H.grib2 2026-04-13 16:47 473K
20260413T12Z_MSC_GDPS_Thickness_IsbL-1000to0500_LatLon0.15_PT126H.grib2 2026-04-13 16:47 381K
20260413T12Z_MSC_GDPS_Thickness_IsbL-1000to0850_LatLon0.15_PT126H.grib2 2026-04-13 16:47 495K
20260413T12Z_MSC_GDPS_TotalCloudCover_Sfc_LatLon0.15_PT126H.grib2 2026-04-13 16:47 814K
20260413T12Z_MSC_GDPS_TotalTotalsIndex_Sfc_LatLon0.15_PT126H.grib2 2026-04-13 16:47 6.2M
20260413T12Z_MSC_GDPS_UVIndex-ClearSky-Max24h_Sfc_LatLon0.15_PT126H.grib2 2026-04-13 17:07 2.2M
20260413T12Z_MSC_GDPS_UVIndex-ClearSky_Sfc_LatLon0.15_PT126H.grib2 2026-04-13 17:07 1.0M
20260413T12Z_MSC_GDPS_UVIndex-Max24h_Sfc_LatLon0.15_PT126H.grib2 2026-04-13 17:07 3.2M
20260413T12Z_MSC_GDPS_UVIndex_Sfc_LatLon0.15_PT126H.grib2 2026-04-13 17:07 1.5M
20260413T12Z_MSC_GDPS_UpwardLongwaveRadiationFlux_NTAtm_LatLon0.15_PT126H.grib2 2026-04-13 16:47 842K
20260413T12Z_MSC_GDPS_VerticalVelocity_IsbL-0200_LatLon0.15_PT126H.grib2 2026-04-13 16:47 1.2M
20260413T12Z_MSC_GDPS_VerticalVelocity_IsbL-0250_LatLon0.15_PT126H.grib2 2026-04-13 16:47 1.0M
20260413T12Z_MSC_GDPS_VerticalVelocity_IsbL-0500_LatLon0.15_PT126H.grib2 2026-04-13 16:47 1.3M
20260413T12Z_MSC_GDPS_VerticalVelocity_IsbL-0600_LatLon0.15_PT126H.grib2 2026-04-13 16:47 1.3M
20260413T12Z_MSC_GDPS_VerticalVelocity_IsbL-0700_LatLon0.15_PT126H.grib2 2026-04-13 16:47 1.1M
20260413T12Z_MSC_GDPS_VerticalVelocity_IsbL-0850_LatLon0.15_PT126H.grib2 2026-04-13 16:47 1.3M
20260413T12Z_MSC_GDPS_WindChill_Sfc_LatLon0.15_PT126H.grib2 2026-04-13 16:47 5.3M
20260413T12Z_MSC_GDPS_WindDir_AGL-10m_LatLon0.15_PT126H.grib2 2026-04-13 16:47 1.4M
20260413T12Z_MSC_GDPS_WindDir_AGL-120m_LatLon0.15_PT126H.grib2 2026-04-13 16:47 1.4M
20260413T12Z_MSC_GDPS_WindDir_AGL-40m_LatLon0.15_PT126H.grib2 2026-04-13 16:47 1.4M
20260413T12Z_MSC_GDPS_WindDir_AGL-80m_LatLon0.15_PT126H.grib2 2026-04-13 16:47 1.4M
20260413T12Z_MSC_GDPS_WindDir_IsbL-0001_LatLon0.15_PT126H.grib2 2026-04-13 16:47 642K
20260413T12Z_MSC_GDPS_WindDir_IsbL-0005_LatLon0.15_PT126H.grib2 2026-04-13 16:47 796K
20260413T12Z_MSC_GDPS_WindDir_IsbL-0010_LatLon0.15_PT126H.grib2 2026-04-13 16:47 843K
20260413T12Z_MSC_GDPS_WindDir_IsbL-0020_LatLon0.15_PT126H.grib2 2026-04-13 16:47 908K
20260413T12Z_MSC_GDPS_WindDir_IsbL-0030_LatLon0.15_PT126H.grib2 2026-04-13 16:47 876K
20260413T12Z_MSC_GDPS_WindDir_IsbL-0050_LatLon0.15_PT126H.grib2 2026-04-13 16:47 942K
20260413T12Z_MSC_GDPS_WindDir_IsbL-0100_LatLon0.15_PT126H.grib2 2026-04-13 16:47 1.0M
20260413T12Z_MSC_GDPS_WindDir_IsbL-0150_LatLon0.15_PT126H.grib2 2026-04-13 16:47 1.0M
20260413T12Z_MSC_GDPS_WindDir_IsbL-0175_LatLon0.15_PT126H.grib2 2026-04-13 16:47 1.0M
20260413T12Z_MSC_GDPS_WindDir_IsbL-0200_LatLon0.15_PT126H.grib2 2026-04-13 16:47 1.1M
20260413T12Z_MSC_GDPS_WindDir_IsbL-0225_LatLon0.15_PT126H.grib2 2026-04-13 16:47 1.1M
20260413T12Z_MSC_GDPS_WindDir_IsbL-0250_LatLon0.15_PT126H.grib2 2026-04-13 16:47 1.1M
20260413T12Z_MSC_GDPS_WindDir_IsbL-0275_LatLon0.15_PT126H.grib2 2026-04-13 16:47 1.2M
20260413T12Z_MSC_GDPS_WindDir_IsbL-0300_LatLon0.15_PT126H.grib2 2026-04-13 16:47 1.2M
20260413T12Z_MSC_GDPS_WindDir_IsbL-0350_LatLon0.15_PT126H.grib2 2026-04-13 16:47 1.2M
20260413T12Z_MSC_GDPS_WindDir_IsbL-0400_LatLon0.15_PT126H.grib2 2026-04-13 16:47 1.3M
20260413T12Z_MSC_GDPS_WindDir_IsbL-0450_LatLon0.15_PT126H.grib2 2026-04-13 16:47 1.3M
20260413T12Z_MSC_GDPS_WindDir_IsbL-0500_LatLon0.15_PT126H.grib2 2026-04-13 16:47 1.4M
20260413T12Z_MSC_GDPS_WindDir_IsbL-0550_LatLon0.15_PT126H.grib2 2026-04-13 16:47 1.4M
20260413T12Z_MSC_GDPS_WindDir_IsbL-0600_LatLon0.15_PT126H.grib2 2026-04-13 16:47 1.5M
20260413T12Z_MSC_GDPS_WindDir_IsbL-0650_LatLon0.15_PT126H.grib2 2026-04-13 16:47 1.5M
20260413T12Z_MSC_GDPS_WindDir_IsbL-0700_LatLon0.15_PT126H.grib2 2026-04-13 16:47 1.6M
20260413T12Z_MSC_GDPS_WindDir_IsbL-0750_LatLon0.15_PT126H.grib2 2026-04-13 16:47 1.7M
20260413T12Z_MSC_GDPS_WindDir_IsbL-0800_LatLon0.15_PT126H.grib2 2026-04-13 16:47 1.9M
20260413T12Z_MSC_GDPS_WindDir_IsbL-0850_LatLon0.15_PT126H.grib2 2026-04-13 16:47 2.0M
20260413T12Z_MSC_GDPS_WindDir_IsbL-0875_LatLon0.15_PT126H.grib2 2026-04-13 16:47 2.0M
20260413T12Z_MSC_GDPS_WindDir_IsbL-0900_LatLon0.15_PT126H.grib2 2026-04-13 16:47 2.0M
20260413T12Z_MSC_GDPS_WindDir_IsbL-0925_LatLon0.15_PT126H.grib2 2026-04-13 16:47 2.0M
20260413T12Z_MSC_GDPS_WindDir_IsbL-0950_LatLon0.15_PT126H.grib2 2026-04-13 16:47 2.0M
20260413T12Z_MSC_GDPS_WindDir_IsbL-0970_LatLon0.15_PT126H.grib2 2026-04-13 16:47 2.0M
20260413T12Z_MSC_GDPS_WindDir_IsbL-0985_LatLon0.15_PT126H.grib2 2026-04-13 16:47 2.1M
20260413T12Z_MSC_GDPS_WindDir_IsbL-1000_LatLon0.15_PT126H.grib2 2026-04-13 16:47 2.1M
20260413T12Z_MSC_GDPS_WindDir_IsbL-1015_LatLon0.15_PT126H.grib2 2026-04-13 16:47 2.1M
20260413T12Z_MSC_GDPS_WindGust-Max_AGL-10m_LatLon0.15_PT126H.grib2 2026-04-13 16:47 2.2M
20260413T12Z_MSC_GDPS_WindGust-Min_AGL-10m_LatLon0.15_PT126H.grib2 2026-04-13 16:47 2.2M
20260413T12Z_MSC_GDPS_WindGust_AGL-10m_LatLon0.15_PT126H.grib2 2026-04-13 16:47 2.1M
20260413T12Z_MSC_GDPS_WindSpeed_AGL-10m_LatLon0.15_PT126H.grib2 2026-04-13 16:47 1.1M
20260413T12Z_MSC_GDPS_WindSpeed_AGL-120m_LatLon0.15_PT126H.grib2 2026-04-13 16:47 1.3M
20260413T12Z_MSC_GDPS_WindSpeed_AGL-40m_LatLon0.15_PT126H.grib2 2026-04-13 16:47 1.2M
20260413T12Z_MSC_GDPS_WindSpeed_AGL-80m_LatLon0.15_PT126H.grib2 2026-04-13 16:47 1.3M
20260413T12Z_MSC_GDPS_WindSpeed_IsbL-0001_LatLon0.15_PT126H.grib2 2026-04-13 16:47 630K
20260413T12Z_MSC_GDPS_WindSpeed_IsbL-0005_LatLon0.15_PT126H.grib2 2026-04-13 16:47 683K
20260413T12Z_MSC_GDPS_WindSpeed_IsbL-0010_LatLon0.15_PT126H.grib2 2026-04-13 16:47 617K
20260413T12Z_MSC_GDPS_WindSpeed_IsbL-0020_LatLon0.15_PT126H.grib2 2026-04-13 16:47 853K
20260413T12Z_MSC_GDPS_WindSpeed_IsbL-0030_LatLon0.15_PT126H.grib2 2026-04-13 16:47 848K
20260413T12Z_MSC_GDPS_WindSpeed_IsbL-0050_LatLon0.15_PT126H.grib2 2026-04-13 16:47 1.0M
20260413T12Z_MSC_GDPS_WindSpeed_IsbL-0100_LatLon0.15_PT126H.grib2 2026-04-13 16:47 1.1M
20260413T12Z_MSC_GDPS_WindSpeed_IsbL-0150_LatLon0.15_PT126H.grib2 2026-04-13 16:47 1.0M
20260413T12Z_MSC_GDPS_WindSpeed_IsbL-0175_LatLon0.15_PT126H.grib2 2026-04-13 16:47 1.0M
20260413T12Z_MSC_GDPS_WindSpeed_IsbL-0200_LatLon0.15_PT126H.grib2 2026-04-13 16:47 1.1M
20260413T12Z_MSC_GDPS_WindSpeed_IsbL-0225_LatLon0.15_PT126H.grib2 2026-04-13 16:47 1.1M
20260413T12Z_MSC_GDPS_WindSpeed_IsbL-0250_LatLon0.15_PT126H.grib2 2026-04-13 16:47 1.1M
20260413T12Z_MSC_GDPS_WindSpeed_IsbL-0275_LatLon0.15_PT126H.grib2 2026-04-13 16:47 1.1M
20260413T12Z_MSC_GDPS_WindSpeed_IsbL-0300_LatLon0.15_PT126H.grib2 2026-04-13 16:47 1.1M
20260413T12Z_MSC_GDPS_WindSpeed_IsbL-0350_LatLon0.15_PT126H.grib2 2026-04-13 16:47 1.1M
20260413T12Z_MSC_GDPS_WindSpeed_IsbL-0400_LatLon0.15_PT126H.grib2 2026-04-13 16:47 1.1M
20260413T12Z_MSC_GDPS_WindSpeed_IsbL-0450_LatLon0.15_PT126H.grib2 2026-04-13 16:47 1.1M
20260413T12Z_MSC_GDPS_WindSpeed_IsbL-0500_LatLon0.15_PT126H.grib2 2026-04-13 16:47 1.1M
20260413T12Z_MSC_GDPS_WindSpeed_IsbL-0550_LatLon0.15_PT126H.grib2 2026-04-13 16:47 1.1M
20260413T12Z_MSC_GDPS_WindSpeed_IsbL-0600_LatLon0.15_PT126H.grib2 2026-04-13 16:47 1.4M
20260413T12Z_MSC_GDPS_WindSpeed_IsbL-0650_LatLon0.15_PT126H.grib2 2026-04-13 16:47 1.4M
20260413T12Z_MSC_GDPS_WindSpeed_IsbL-0700_LatLon0.15_PT126H.grib2 2026-04-13 16:47 1.5M
20260413T12Z_MSC_GDPS_WindSpeed_IsbL-0750_LatLon0.15_PT126H.grib2 2026-04-13 16:47 1.6M
20260413T12Z_MSC_GDPS_WindSpeed_IsbL-0800_LatLon0.15_PT126H.grib2 2026-04-13 16:47 1.6M
20260413T12Z_MSC_GDPS_WindSpeed_IsbL-0850_LatLon0.15_PT126H.grib2 2026-04-13 16:47 1.7M
20260413T12Z_MSC_GDPS_WindSpeed_IsbL-0875_LatLon0.15_PT126H.grib2 2026-04-13 16:47 1.8M
20260413T12Z_MSC_GDPS_WindSpeed_IsbL-0900_LatLon0.15_PT126H.grib2 2026-04-13 16:47 1.8M
20260413T12Z_MSC_GDPS_WindSpeed_IsbL-0925_LatLon0.15_PT126H.grib2 2026-04-13 16:47 1.8M
20260413T12Z_MSC_GDPS_WindSpeed_IsbL-0950_LatLon0.15_PT126H.grib2 2026-04-13 16:47 1.8M
20260413T12Z_MSC_GDPS_WindSpeed_IsbL-0970_LatLon0.15_PT126H.grib2 2026-04-13 16:47 1.9M
20260413T12Z_MSC_GDPS_WindSpeed_IsbL-0985_LatLon0.15_PT126H.grib2 2026-04-13 16:47 1.9M
20260413T12Z_MSC_GDPS_WindSpeed_IsbL-1000_LatLon0.15_PT126H.grib2 2026-04-13 16:47 1.9M
20260413T12Z_MSC_GDPS_WindSpeed_IsbL-1015_LatLon0.15_PT126H.grib2 2026-04-13 16:47 1.8M
20260413T12Z_MSC_GDPS_WindU_AGL-10m_LatLon0.15_PT126H.grib2 2026-04-13 16:47 1.3M
20260413T12Z_MSC_GDPS_WindU_AGL-120m_LatLon0.15_PT126H.grib2 2026-04-13 16:48 1.0M
20260413T12Z_MSC_GDPS_WindU_AGL-40m_LatLon0.15_PT126H.grib2 2026-04-13 16:48 1.0M
20260413T12Z_MSC_GDPS_WindU_AGL-80m_LatLon0.15_PT126H.grib2 2026-04-13 16:48 1.0M
20260413T12Z_MSC_GDPS_WindU_IsbL-0001_LatLon0.15_PT126H.grib2 2026-04-13 16:48 636K
20260413T12Z_MSC_GDPS_WindU_IsbL-0005_LatLon0.15_PT126H.grib2 2026-04-13 16:48 683K
20260413T12Z_MSC_GDPS_WindU_IsbL-0010_LatLon0.15_PT126H.grib2 2026-04-13 16:48 695K
20260413T12Z_MSC_GDPS_WindU_IsbL-0020_LatLon0.15_PT126H.grib2 2026-04-13 16:48 730K
20260413T12Z_MSC_GDPS_WindU_IsbL-0030_LatLon0.15_PT126H.grib2 2026-04-13 16:48 729K
20260413T12Z_MSC_GDPS_WindU_IsbL-0050_LatLon0.15_PT126H.grib2 2026-04-13 16:48 699K
20260413T12Z_MSC_GDPS_WindU_IsbL-0100_LatLon0.15_PT126H.grib2 2026-04-13 16:48 927K
20260413T12Z_MSC_GDPS_WindU_IsbL-0150_LatLon0.15_PT126H.grib2 2026-04-13 16:48 1.0M
20260413T12Z_MSC_GDPS_WindU_IsbL-0175_LatLon0.15_PT126H.grib2 2026-04-13 16:48 1.0M
20260413T12Z_MSC_GDPS_WindU_IsbL-0200_LatLon0.15_PT126H.grib2 2026-04-13 16:48 846K
20260413T12Z_MSC_GDPS_WindU_IsbL-0225_LatLon0.15_PT126H.grib2 2026-04-13 16:48 858K
20260413T12Z_MSC_GDPS_WindU_IsbL-0250_LatLon0.15_PT126H.grib2 2026-04-13 16:48 859K
20260413T12Z_MSC_GDPS_WindU_IsbL-0275_LatLon0.15_PT126H.grib2 2026-04-13 16:48 885K
20260413T12Z_MSC_GDPS_WindU_IsbL-0300_LatLon0.15_PT126H.grib2 2026-04-13 16:48 875K
20260413T12Z_MSC_GDPS_WindU_IsbL-0350_LatLon0.15_PT126H.grib2 2026-04-13 16:48 1.1M
20260413T12Z_MSC_GDPS_WindU_IsbL-0400_LatLon0.15_PT126H.grib2 2026-04-13 16:48 1.1M
20260413T12Z_MSC_GDPS_WindU_IsbL-0450_LatLon0.15_PT126H.grib2 2026-04-13 16:48 1.1M
20260413T12Z_MSC_GDPS_WindU_IsbL-0500_LatLon0.15_PT126H.grib2 2026-04-13 16:48 1.1M
20260413T12Z_MSC_GDPS_WindU_IsbL-0550_LatLon0.15_PT126H.grib2 2026-04-13 16:48 1.1M
20260413T12Z_MSC_GDPS_WindU_IsbL-0600_LatLon0.15_PT126H.grib2 2026-04-13 16:48 1.1M
20260413T12Z_MSC_GDPS_WindU_IsbL-0650_LatLon0.15_PT126H.grib2 2026-04-13 16:48 1.1M
20260413T12Z_MSC_GDPS_WindU_IsbL-0700_LatLon0.15_PT126H.grib2 2026-04-13 16:48 1.2M
20260413T12Z_MSC_GDPS_WindU_IsbL-0750_LatLon0.15_PT126H.grib2 2026-04-13 16:48 1.3M
20260413T12Z_MSC_GDPS_WindU_IsbL-0800_LatLon0.15_PT126H.grib2 2026-04-13 16:48 1.3M
20260413T12Z_MSC_GDPS_WindU_IsbL-0850_LatLon0.15_PT126H.grib2 2026-04-13 16:48 1.4M
20260413T12Z_MSC_GDPS_WindU_IsbL-0875_LatLon0.15_PT126H.grib2 2026-04-13 16:48 1.4M
20260413T12Z_MSC_GDPS_WindU_IsbL-0900_LatLon0.15_PT126H.grib2 2026-04-13 16:48 1.5M
20260413T12Z_MSC_GDPS_WindU_IsbL-0925_LatLon0.15_PT126H.grib2 2026-04-13 16:48 1.5M
20260413T12Z_MSC_GDPS_WindU_IsbL-0950_LatLon0.15_PT126H.grib2 2026-04-13 16:48 1.4M
20260413T12Z_MSC_GDPS_WindU_IsbL-0970_LatLon0.15_PT126H.grib2 2026-04-13 16:48 1.4M
20260413T12Z_MSC_GDPS_WindU_IsbL-0985_LatLon0.15_PT126H.grib2 2026-04-13 16:48 1.4M
20260413T12Z_MSC_GDPS_WindU_IsbL-1000_LatLon0.15_PT126H.grib2 2026-04-13 16:48 1.4M
20260413T12Z_MSC_GDPS_WindU_IsbL-1015_LatLon0.15_PT126H.grib2 2026-04-13 16:48 1.4M
20260413T12Z_MSC_GDPS_WindV_AGL-10m_LatLon0.15_PT126H.grib2 2026-04-13 16:48 1.6M
20260413T12Z_MSC_GDPS_WindV_AGL-120m_LatLon0.15_PT126H.grib2 2026-04-13 16:48 1.0M
20260413T12Z_MSC_GDPS_WindV_AGL-40m_LatLon0.15_PT126H.grib2 2026-04-13 16:48 1.0M
20260413T12Z_MSC_GDPS_WindV_AGL-80m_LatLon0.15_PT126H.grib2 2026-04-13 16:48 1.0M
20260413T12Z_MSC_GDPS_WindV_IsbL-0001_LatLon0.15_PT126H.grib2 2026-04-13 16:48 759K
20260413T12Z_MSC_GDPS_WindV_IsbL-0005_LatLon0.15_PT126H.grib2 2026-04-13 16:48 770K
20260413T12Z_MSC_GDPS_WindV_IsbL-0010_LatLon0.15_PT126H.grib2 2026-04-13 16:48 795K
20260413T12Z_MSC_GDPS_WindV_IsbL-0020_LatLon0.15_PT126H.grib2 2026-04-13 16:48 846K
20260413T12Z_MSC_GDPS_WindV_IsbL-0030_LatLon0.15_PT126H.grib2 2026-04-13 16:48 844K
20260413T12Z_MSC_GDPS_WindV_IsbL-0050_LatLon0.15_PT126H.grib2 2026-04-13 16:48 898K
20260413T12Z_MSC_GDPS_WindV_IsbL-0100_LatLon0.15_PT126H.grib2 2026-04-13 16:48 852K
20260413T12Z_MSC_GDPS_WindV_IsbL-0150_LatLon0.15_PT126H.grib2 2026-04-13 16:48 1.0M
20260413T12Z_MSC_GDPS_WindV_IsbL-0175_LatLon0.15_PT126H.grib2 2026-04-13 16:48 1.0M
20260413T12Z_MSC_GDPS_WindV_IsbL-0200_LatLon0.15_PT126H.grib2 2026-04-13 16:48 844K
20260413T12Z_MSC_GDPS_WindV_IsbL-0225_LatLon0.15_PT126H.grib2 2026-04-13 16:48 854K
20260413T12Z_MSC_GDPS_WindV_IsbL-0250_LatLon0.15_PT126H.grib2 2026-04-13 16:48 914K
20260413T12Z_MSC_GDPS_WindV_IsbL-0275_LatLon0.15_PT126H.grib2 2026-04-13 16:48 938K
20260413T12Z_MSC_GDPS_WindV_IsbL-0300_LatLon0.15_PT126H.grib2 2026-04-13 16:48 927K
20260413T12Z_MSC_GDPS_WindV_IsbL-0350_LatLon0.15_PT126H.grib2 2026-04-13 16:48 938K
20260413T12Z_MSC_GDPS_WindV_IsbL-0400_LatLon0.15_PT126H.grib2 2026-04-13 16:48 878K
20260413T12Z_MSC_GDPS_WindV_IsbL-0450_LatLon0.15_PT126H.grib2 2026-04-13 16:48 877K
20260413T12Z_MSC_GDPS_WindV_IsbL-0500_LatLon0.15_PT126H.grib2 2026-04-13 16:48 1.1M
20260413T12Z_MSC_GDPS_WindV_IsbL-0550_LatLon0.15_PT126H.grib2 2026-04-13 16:48 1.1M
20260413T12Z_MSC_GDPS_WindV_IsbL-0600_LatLon0.15_PT126H.grib2 2026-04-13 16:48 1.1M
20260413T12Z_MSC_GDPS_WindV_IsbL-0650_LatLon0.15_PT126H.grib2 2026-04-13 16:48 1.2M
20260413T12Z_MSC_GDPS_WindV_IsbL-0700_LatLon0.15_PT126H.grib2 2026-04-13 16:48 1.2M
20260413T12Z_MSC_GDPS_WindV_IsbL-0750_LatLon0.15_PT126H.grib2 2026-04-13 16:48 1.3M
20260413T12Z_MSC_GDPS_WindV_IsbL-0800_LatLon0.15_PT126H.grib2 2026-04-13 16:48 1.3M
20260413T12Z_MSC_GDPS_WindV_IsbL-0850_LatLon0.15_PT126H.grib2 2026-04-13 16:48 1.4M
20260413T12Z_MSC_GDPS_WindV_IsbL-0875_LatLon0.15_PT126H.grib2 2026-04-13 16:48 1.4M
20260413T12Z_MSC_GDPS_WindV_IsbL-0900_LatLon0.15_PT126H.grib2 2026-04-13 16:48 1.5M
20260413T12Z_MSC_GDPS_WindV_IsbL-0925_LatLon0.15_PT126H.grib2 2026-04-13 16:48 1.5M
20260413T12Z_MSC_GDPS_WindV_IsbL-0950_LatLon0.15_PT126H.grib2 2026-04-13 16:48 1.4M
20260413T12Z_MSC_GDPS_WindV_IsbL-0970_LatLon0.15_PT126H.grib2 2026-04-13 16:48 1.4M
20260413T12Z_MSC_GDPS_WindV_IsbL-0985_LatLon0.15_PT126H.grib2 2026-04-13 16:48 1.4M
20260413T12Z_MSC_GDPS_WindV_IsbL-1000_LatLon0.15_PT126H.grib2 2026-04-13 16:48 1.7M
20260413T12Z_MSC_GDPS_WindV_IsbL-1015_LatLon0.15_PT126H.grib2 2026-04-13 16:48 1.7M